Date String (YYYY-MM-DD hh:mm:ss) UTC,Instrument flags,Ambient pressure (hPa),Sample flow (lpm),Bypass flow (lpm),Sample temperature (°C),Ambient temperature (°C),ASC tube jacket temperature (°C),LED temperature (°C),Box temperature (°C),Sample RH (%),Span deviation,Mass concentration (μg/m³),Mass concentration (μg/m³),Mass concentration (μg/m³)
DateTimeUTC,F1_M11,P_M11,Q1_M11,Q2_M11,T1_M11,T2_M11,T3_M11,T4_M11,T5_M11,U1_M11,ZSPAN_M11,X0_M11,X2_M11,X1_M11
2021-12-14 06:00:00,,0823.9,5.00,0.00,27.1,26.1,00.0,36.1,28.8,06.3,0006.9,0017.13,0004.78,0003.47
2021-12-14 06:01:00,,0823.9,4.99,0.00,27.1,26.1,00.0,36.1,28.8,06.2,0000.8,0017.53,0004.74,0003.46
2021-12-14 06:02:00,,0823.9,5.01,0.00,27.1,26.1,00.0,36.1,28.8,06.1,0001.1,0017.44,0004.65,0003.41
2021-12-14 06:03:00,,0824.0,4.99,0.00,27.1,26.2,00.0,36.1,28.8,06.2,0000.0,0017.39,0004.63,0003.39
2021-12-14 06:04:00,,0824.0,5.02,0.00,27.1,26.1,00.0,36.1,28.8,06.2,0001.9,0017.58,0004.69,0003.40
2021-12-14 06:05:00,,0824.0,5.00,0.00,27.1,26.1,00.0,36.1,28.8,06.3,0000.0,0017.04,0004.68,0003.42
2021-12-14 06:06:00,,0824.1,5.00,0.00,27.1,26.1,00.0,36.1,28.8,06.3,0000.0,0016.78,0004.69,0003.42
2021-12-14 06:07:00,,0824.1,5.01,0.00,27.1,26.1,00.0,36.1,28.8,06.3,0000.0,0015.80,0004.63,0003.42
2021-12-14 06:08:00,,0824.1,4.98,0.00,27.1,26.1,00.0,36.1,28.8,06.3,0000.0,0015.54,0004.69,0003.43
2021-12-14 06:09:00,,0824.1,5.02,0.00,27.1,26.1,00.0,36.1,28.8,06.3,0000.0,0015.61,0004.73,0003.45
2021-12-14 06:10:00,,0824.1,4.99,0.00,27.1,26.1,00.0,36.1,28.8,06.3,0000.0,0015.60,0004.79,0003.47
2021-12-14 06:11:00,,0824.1,5.00,0.00,27.1,26.1,00.0,36.1,28.8,06.4,0000.0,0016.29,0004.83,0003.46
2021-12-14 06:12:00,,0824.1,5.01,0.00,27.0,26.1,00.0,36.1,28.7,06.4,0000.0,0016.06,0004.86,0003.47
2021-12-14 06:13:00,,0824.0,4.98,0.00,27.0,26.1,00.0,36.1,28.7,06.4,0000.0,0016.19,0004.92,0003.52
2021-12-14 06:14:00,,0824.0,5.02,0.00,27.0,26.1,00.0,36.1,28.7,06.3,0000.0,0015.74,0004.94,0003.53
2021-12-14 06:15:00,,0824.0,4.98,0.00,27.0,26.1,00.0,36.0,28.7,06.3,0000.0,0015.17,0004.92,0003.53
2021-12-14 06:16:00,,0824.0,5.02,0.00,27.0,26.0,00.0,36.0,28.7,06.3,0000.0,0014.82,0004.91,0003.51
2021-12-14 06:17:00,,0824.0,4.99,0.00,27.0,26.0,00.0,36.0,28.7,06.4,0000.0,0015.58,0004.94,0003.52
2021-12-14 06:18:00,,0824.0,5.00,0.00,27.0,26.0,00.0,36.0,28.7,06.4,0000.0,0016.61,0004.99,0003.52
2021-12-14 06:19:00,,0824.0,5.02,0.00,26.9,26.0,00.0,36.0,28.6,06.3,0000.0,0017.48,0004.95,0003.52
2021-12-14 06:20:00,,0823.9,4.98,0.00,26.9,26.0,00.0,36.0,28.6,06.3,0000.0,0018.15,0004.91,0003.51
2021-12-14 06:21:00,,0823.8,5.02,0.00,26.9,26.0,00.0,36.0,28.6,06.3,0000.0,0018.51,0004.84,0003.51
2021-12-14 06:22:00,,0823.8,4.98,0.00,26.9,26.0,00.0,36.0,28.6,06.3,0000.0,0018.13,0004.78,0003.48
2021-12-14 06:23:00,,0823.8,5.02,0.00,26.9,26.0,00.0,36.0,28.6,06.3,0000.0,0017.53,0004.69,0003.46
2021-12-14 06:24:00,,0823.7,4.99,0.00,26.9,26.0,00.0,36.0,28.6,06.3,0000.0,0017.56,0004.72,0003.43
2021-12-14 06:25:00,,0823.8,5.01,0.00,26.9,26.0,00.0,36.0,28.6,06.3,0000.0,0018.33,0004.71,0003.42
2021-12-14 06:26:00,,0823.9,5.00,0.00,26.9,26.0,00.0,35.9,28.6,06.3,0000.0,0019.69,0004.67,0003.40
2021-12-14 06:27:00,,0824.0,5.01,0.00,26.9,26.0,00.0,35.9,28.6,06.4,0000.0,0021.16,0004.69,0003.40
2021-12-14 06:28:00,,0823.9,5.01,0.00,26.9,26.0,00.0,35.9,28.5,06.4,0000.0,0020.62,0004.72,0003.42
2021-12-14 06:29:00,,0823.8,4.98,0.00,26.9,25.9,00.0,35.9,28.6,06.4,0000.0,0020.98,0004.72,0003.41
2021-12-14 06:30:00,,0823.7,5.02,0.00,26.9,25.9,00.0,35.9,28.6,06.4,0000.0,0021.25,0004.71,0003.42
2021-12-14 06:31:00,,0823.7,4.99,0.00,26.9,25.9,00.0,35.9,28.6,06.4,0000.0,0020.69,0004.68,0003.44
2021-12-14 06:32:00,,0823.7,5.02,0.00,26.8,25.9,00.0,35.9,28.6,06.4,0000.0,0020.23,0004.75,0003.46
2021-12-14 06:33:00,,0823.7,4.98,0.00,26.8,25.9,00.0,35.9,28.6,06.4,0000.0,0020.97,0004.90,0003.49
2021-12-14 06:34:00,,0823.8,4.99,0.00,26.8,25.9,00.0,35.9,28.5,06.4,0000.0,0022.87,0005.00,0003.53
2021-12-14 06:35:00,,0823.7,5.01,0.00,26.8,25.9,00.0,35.9,28.5,06.4,0000.0,0023.21,0005.07,0003.57
2021-12-14 06:36:00,,0823.7,4.98,0.00,26.8,25.9,00.0,35.9,28.5,06.4,0000.0,0023.93,0005.13,0003.60
2021-12-14 06:37:00,,0823.7,5.02,0.00,26.8,25.9,00.0,35.9,28.5,06.4,0000.0,0023.89,0005.17,0003.64
2021-12-14 06:38:00,,0823.8,5.00,0.00,26.8,25.9,00.0,35.8,28.5,06.4,0000.0,0023.37,0005.22,0003.69
2021-12-14 06:39:00,,0823.8,5.00,0.00,26.8,25.9,00.0,35.8,28.6,06.5,0000.0,0023.92,0005.26,0003.71
2021-12-14 06:40:00,,0823.8,5.01,0.00,26.8,25.9,00.0,35.8,28.6,06.5,0000.0,0022.99,0005.27,0003.77
2021-12-14 06:41:00,,0823.8,4.98,0.00,26.8,25.9,00.0,35.8,28.5,06.4,0000.0,0022.19,0005.36,0003.80
2021-12-14 06:42:00,,0823.7,5.02,0.00,26.8,25.9,00.0,35.8,28.6,06.4,0000.0,0022.25,0005.47,0003.82
2021-12-14 06:43:00,,0823.7,5.00,0.00,26.8,25.9,00.0,35.8,28.6,06.4,0000.0,0022.28,0005.49,0003.83
2021-12-14 06:44:00,,0823.7,4.99,0.00,26.8,25.9,00.0,35.8,28.6,06.4,0000.0,0022.20,0005.47,0003.84
2021-12-14 06:45:00,,0823.7,5.01,0.00,26.8,25.9,00.0,35.8,28.5,06.4,0000.0,0020.63,0005.41,0003.82
2021-12-14 06:46:00,,0823.7,5.00,0.00,26.8,25.9,00.0,35.8,28.5,06.3,0000.0,0020.47,0005.35,0003.80
2021-12-14 06:47:00,,0823.7,5.01,0.00,26.8,25.9,00.0,35.8,28.6,06.3,0000.0,0019.31,0005.34,0003.79
2021-12-14 06:48:00,,0823.6,4.99,0.00,26.8,25.9,00.0,35.8,28.6,06.3,0001.7,0019.33,0005.36,0003.77
2021-12-14 06:49:00,,0823.6,5.00,0.00,26.8,25.9,00.0,35.8,28.5,06.3,0002.3,0018.69,0005.33,0003.74
2021-12-14 06:50:00,,0823.6,5.00,0.00,26.8,25.9,00.0,35.8,28.5,06.3,0004.0,0017.90,0005.30,0003.71
2021-12-14 06:51:00,,0823.4,4.99,0.00,26.8,25.9,00.0,35.8,28.6,06.2,0004.4,0018.13,0005.28,0003.65
2021-12-14 06:52:00,,0823.3,5.01,0.00,26.8,25.9,00.0,35.8,28.6,06.1,0004.4,0018.44,0005.15,0003.59
2021-12-14 06:53:00,,0823.3,4.99,0.00,26.8,25.9,00.0,35.8,28.6,06.1,0000.8,0017.73,0005.05,0003.53
2021-12-14 06:54:00,,0823.4,4.99,0.00,26.8,25.9,00.0,35.8,28.6,06.1,0000.0,0017.22,0004.90,0003.47
2021-12-14 06:55:00,,0823.4,5.01,0.00,26.8,25.9,00.0,35.8,28.6,06.1,0000.0,0015.64,0004.73,0003.37
2021-12-14 06:56:00,,0823.3,4.99,0.00,26.8,25.9,00.0,35.8,28.6,06.1,0000.0,0015.32,0004.63,0003.30
2021-12-14 06:57:00,,0823.2,5.00,0.00,26.8,25.8,00.0,35.8,28.5,06.1,0000.0,0014.52,0004.52,0003.24
2021-12-14 06:58:00,,0823.2,5.01,0.00,26.8,25.8,00.0,35.8,28.5,06.1,0000.0,0014.77,0004.38,0003.16
2021-12-14 06:59:00,,0823.2,5.00,0.00,26.8,25.8,00.0,35.8,28.5,06.3,0000.0,0013.62,0004.32,0003.14
